Topeka Forbes, KS

8:36 AM CST on November 20, 2017 (GMT -0600)
Forbes

Weather History for KFOE - November, 2012

Change the Weather History Date:

Thursday, November 1, 2012

  Actual Average Record
Temperature  
Mean Temperature 56 °F -  
Max Temperature 77 °F 61 °F 82 °F (1990)
Min Temperature 37 °F 41 °F 20 °F (1991)
Degree Days  
Heating Degree Days 9    
Growing Degree Days 6 (Base 50)    
Moisture  
Dew Point 38 °F    
Average Humidity 58    
Maximum Humidity 83    
Minimum Humidity 25    
Precipitation  
Precipitation 0.00 in - - ()
Sea Level Pressure  
Sea Level Pressure 29.96 in    
Wind  
Wind Speed 4 mph (WNW)    
Max Wind Speed 16 mph    
Max Gust Speed 25 mph    
Visibility 10 miles    
Events      
Averages and records for this station are not official NWS values.
T = Trace of Precipitation, MM = Missing Value Source: NWS Daily Summary

Daily Weather History Graph

Daily Weather History Graph

Search for Another Location

Airport or City:

Trip Planner

Search our weather history database for the weather conditions in past years. The results will help you decide how hot, cold, wet, or windy it might be!

Date:

Astronomy

Nov. 01, 2012 Rise Set
Actual Time 7:50 AM CDT 6:21 PM CDT
Civil Twilight 7:22 AM CDT 6:49 PM CDT
Nautical Twilight 6:51 AM CDT 7:20 PM CDT
Astronomical Twilight 6:20 AM CDT 7:51 PM CDT
Moon 8:20 PM CDT (11/1) 10:22 AM CDT (11/1)
Length of Visible Light 11h 26m
Length of Day
10h 30m
Waning Gibbous, 93% of the Moon is Illuminated
Nov 1
Waning Gibbous
Nov 6
Last Quarter
Nov 13
New
Nov 20
First Quarter
Nov 28
Full

Hourly Weather History & Observations

Time (CDT) Temp. Windchill Dew Point Humidity Pressure Visibility Wind Dir Wind Speed Gust Speed Precip Events Conditions
12:53 AM 39.9 °F - 33.1 °F 77% 30.02 in 10.0 mi Calm Calm - N/A   Clear
1:53 AM 37.0 °F - 32.0 °F 82% 30.01 in 10.0 mi Calm Calm - N/A   Clear
2:53 AM 37.9 °F - 32.0 °F 79% 30.00 in 10.0 mi Calm Calm - N/A   Clear
3:53 AM 43.0 °F 39.5 °F 36.0 °F 76% 29.99 in 10.0 mi South 5.8 mph - N/A   Overcast
4:53 AM 42.1 °F 38.4 °F 34.0 °F 73% 29.98 in 10.0 mi South 5.8 mph - N/A   Scattered Clouds
6:53 AM 37.9 °F 34.4 °F 33.1 °F 83% 29.99 in 10.0 mi South 4.6 mph - N/A   Clear
7:53 AM 39.0 °F 34.8 °F 33.1 °F 79% 30.00 in 10.0 mi South 5.8 mph - N/A   Clear
8:53 AM 43.0 °F - 37.0 °F 80% 30.01 in 10.0 mi Calm Calm - N/A   Clear
9:53 AM 51.1 °F - 37.9 °F 61% 30.01 in 10.0 mi SW 4.6 mph - N/A   Clear
10:53 AM 59.0 °F - 39.0 °F 48% 30.00 in 10.0 mi SW 9.2 mph - N/A   Clear
11:53 AM 68.0 °F - 39.0 °F 35% 29.97 in 10.0 mi SW 12.7 mph - N/A   Clear
1:53 PM 75.9 °F - 37.9 °F 25% 29.92 in 10.0 mi WNW 16.1 mph 25.3 mph N/A   Clear
2:53 PM 75.0 °F - 41.0 °F 29% 29.91 in 10.0 mi NW 12.7 mph 24.2 mph N/A   Clear
3:53 PM 73.9 °F - 42.1 °F 32% 29.90 in 10.0 mi NW 9.2 mph - N/A   Clear
4:53 PM 71.1 °F - 42.1 °F 35% 29.91 in 10.0 mi NNW 12.7 mph - N/A   Clear
5:53 PM 66.0 °F - 43.0 °F 43% 29.92 in 10.0 mi NNW 5.8 mph - N/A   Clear
6:53 PM 60.1 °F - 42.1 °F 51% 29.94 in 10.0 mi North 5.8 mph - N/A   Clear
7:53 PM 60.1 °F - 42.1 °F 51% 29.94 in 10.0 mi NNE 4.6 mph - N/A   Clear
8:53 PM 54.0 °F - 41.0 °F 62% 29.95 in 10.0 mi Calm Calm - N/A   Clear
9:53 PM 53.1 °F - 41.0 °F 64% 29.95 in 10.0 mi NNE 4.6 mph - N/A   Clear
10:53 PM 55.0 °F - 41.0 °F 59% 29.94 in 10.0 mi NNE 5.8 mph - N/A   Clear
11:53 PM 53.1 °F - 39.9 °F 61% 29.93 in 10.0 mi Calm Calm - N/A   Clear